Regional Weather Roundup
Issued by NWS

Home | Current Version | Previous Version | Graphics & Text | Print | Product List | Glossary Off
Versions: 1 2 3 4 5 6 7 8 9 10 11 12 13 14 15 16 17 18 19 20 21 22 23 24 25 26 27 28 29 30 31 32 33 34 35 36 37 38 39 40 41 42 43 44 45 46 47 48 49 50

390
ASUS43 KTOP 180859
RWRKS

WEATHER ROUNDUP FOR KANSAS
NATIONAL WEATHER SERVICE GOODLAND KS
300 AM CST SAT NOV 18 2017

NOTE:  "FAIR" INDICATES FEW OR NO CLOUDS BELOW 12,000 FEET WITH NO
SIGNIFICANT WEATHER AND/OR OBSTRUCTIONS TO VISIBILITY.

KSZ001>006-013>018-027>032-041>047-181000-
NORTHWEST KANSAS

CITY           SKY/WX    TMP DP  RH WIND       PRES   REMARKS
GOODLAND       LGT RAIN  40  36  86 N26G37    29.83R WCI  29
HAYS           CLOUDY    44  39  82 N22G28    29.73R
HILL CITY      LGT RAIN  43  41  93 N22G28    29.79R
RUSSELL        CLOUDY    44  39  82 NW20G28   29.70R
$$

KSZ061>065-074>080-084>089-181000-
SOUTHWEST KANSAS

CITY           SKY/WX    TMP DP  RH WIND       PRES   REMARKS
DODGE CITY     CLOUDY    45  34  65 N17G33    29.75R
GARDEN CITY    CLOUDY    46  37  71 N26G38    29.79R
GREAT BEND     MOCLDY    44  37  76 NW21G26   29.71R
LIBERAL        MOCLDY    45  34  65 N20G28    29.81R
$$

KSZ066>073-081>083-090>101-181000-
SOUTHEAST KANSAS

CITY           SKY/WX    TMP DP  RH WIND       PRES   REMARKS
CHANUTE        CLOUDY    69  54  58 W13       29.39R
COFFEYVILLE    CLOUDY    70  60  70 S12       29.40R
HUTCHINSON     CLOUDY    48  39  71 NW28G37   29.60R
MEDICINE LODGE   N/A     49  37  63 N26G40    29.63R
NEWTON         CLOUDY    48  43  82 N26G32    29.56R
PARSONS        CLOUDY    71  58  63 SW14G21   29.41R
WICHITA INTL   CLOUDY    50  43  77 NW26G35   29.55R
WICHITA JABRA  CLOUDY    50  44  80 NW22G31   29.54R
WICHITA MCCONL CLOUDY    51  42  70 N23G30    29.53R
WINFIELD       PTCLDY    52  47  83 NW20G25   29.51R
$$

KSZ007>012-019>026-033>040-048>060-102>105-181000-
NORTHEAST KANSAS

CITY           SKY/WX    TMP DP  RH WIND       PRES   REMARKS
CONCORDIA      CLOUDY    44  40  85 N22       29.67R
EMPORIA        CLOUDY    56  55  97 NW13G23   29.45R FOG
LAWRENCE       CLOUDY    57  56  96 N14G22    29.39S FOG
MANHATTAN      CLOUDY    51  44  77 N12G28    29.53R
OLATHE IND     MOCLDY    59  58  96 N10       29.37R
OLATHE EXE     CLOUDY    58  58 100 NE6       29.36S FOG
SALINA         CLOUDY    49  40  71 NW24G33   29.63R
TOPEKA BILLARD CLOUDY    56  56 100 N22G33    29.42R FOG
TOPEKA FORBES  CLOUDY    58  56  93 N16G29    29.42R
$$




USA.gov is the U.S. government's official web portal to all federal, state and local government web resources and services.